This demonstration page uses our WeatherBlox Daily Observations layout. Learn more.

Left ArrowRight Arrow

34.02893, -84.19858

Hourly Observations for August 18, 2015

Temp ( °F °C ) Dew Point ( °F °C ) Humidity (%) Winds ( mph kmh ) Pressure ( in mb ) Visibility ( mi km ) Precip ( " mm )
12:36 am 00:36 Mostly Cloudy 72 22 72 22 100 100 Calm 30.06 1018 10 16 0.00 0.00
12:53 am 00:53 Cloudy 71 21.7 71 21.7 100 100 Calm 30.05 1018 10 16 0.00 0.00
1:53 am 01:53 Cloudy 72 22.2 72 22.2 100 100 SSE 5 7 30.03 1017 10 16 0.00 0.00
2:53 am 02:53 Cloudy with Light Rain 72 22.2 72 22.2 100 100 S 3 6 30.01 1016 7 11 0.00 0.03
3:27 am 03:27 Cloudy 72 22.2 72 22.2 100 100 Calm 30.03 1017 9 14 0.01 0.25
3:39 am 03:39 Cloudy 72 22.2 72 22.2 100 100 Calm 30.03 1017 10 16 0.01 0.25
3:46 am 03:46 Cloudy 73 23 72 22 94 94 Calm 30.03 1017 9 14 0.00 0.00
3:53 am 03:53 Cloudy 72 22.2 72 22.2 100 100 SSE 3 6 30.01 1016 8 13 0.01 0.25
4:51 am 04:51 Mostly Cloudy 73 23 72 22 94 94 Calm 30.03 1017 9 14 0.00 0.00
4:53 am 04:53 Mostly Cloudy 73 22.8 72 22.2 96 96 Calm 30.00 1016 8 13 0.00 0.00
5:00 am 05:00 Mostly Cloudy 72 22 72 22 100 100 S 3 6 30.03 1017 9 14 0.00 0.00
5:09 am 05:09 Mostly Cloudy 72 22.2 72 22.2 100 100 S 5 7 30.03 1017 10 16 0.00 0.00
5:25 am 05:25 Mostly Cloudy 72 22.2 72 22.2 100 100 S 3 6 30.03 1017 10 16 0.00 0.00
5:33 am 05:33 Mostly Cloudy 72 22.2 72 22.2 100 100 Calm 30.03 1017 9 14 0.00 0.00
5:45 am 05:45 Mostly Cloudy 72 22.2 72 22.2 100 100 Calm 30.03 1017 8 13 0.00 0.00
5:53 am 05:53 Mostly Cloudy 72 22.2 72 22.2 100 100 Calm 30.00 1016 8 13 0.00 0.00
6:03 am 06:03 Partly Cloudy 72 22 72 22 100 100 S 3 6 30.03 1017 7 11 0.00 0.00
6:49 am 06:49 Mostly Cloudy 72 22 72 22 100 100 SSE 3 6 30.03 1017 9 14 0.00 0.00
6:53 am 06:53 Mostly Cloudy 72 22.2 72 22.2 100 100 Calm 30.01 1016 10 16 0.00 0.00
7:53 am 07:53 Mostly Cloudy 73 22.8 72 22.2 96 96 SW 6 9 30.02 1017 8 13 0.00 0.00
8:23 am 08:23 Cloudy 73 22.8 72 22.2 96 96 SSW 7 11 30.03 1017 10 16 0.00 0.00
8:46 am 08:46 Cloudy 73 23 72 22 94 94 SW 5 7 30.03 1017 10 16 0.00 0.00
8:53 am 08:53 Cloudy 73 22.8 72 22.2 96 96 SSW 5 7 30.02 1017 10 16 0.00 0.00
9:08 am 09:08 Cloudy 73 23 72 22 94 94 S 6 9 30.03 1017 10 16 0.00 0.00
9:53 am 09:53 Cloudy 75 23.9 73 22.8 94 94 S 7 11 30.01 1016 10 16 0.00 0.00
10:28 am 10:28 Cloudy 76 24.4 72 22.2 88 88 VRB 3 6 30.03 1017 10 16 0.00 0.00
10:53 am 10:53 Cloudy 77 25 73 22.8 88 88 SW 6 9 30.01 1016 10 16 0.00 0.00
11:53 am 11:53 Cloudy 79 26.1 74 23.3 85 85 S 6 9 30.01 1016 10 16 0.00 0.00
11:58 am 11:58 Mostly Cloudy 81 27 73 23 79 79 S 8 13 30.00 1016 10 16 0.00 0.00
12:09 pm 12:09 Mostly Cloudy 81 27.2 74 23.3 79 79 SSW 8 13 30.00 1016 10 16 0.00 0.00
12:53 pm 12:53 Mostly Cloudy 84 28.9 75 23.9 74 74 SSW 10 17 29.97 1015 10 16 0.00 0.00
1:08 pm 13:08 Mostly Cloudy with Nearby Thunderstorms 79 26 73 23 84 84 SW 24 39 30.00 1016 2 2 0.00 0.00
1:11 pm 13:11 Mostly Cloudy with Strong Thunderstorms 76 24.4 73 22.8 91 91 SSW 14 22 30.00 1016 1 1 0.25 6.35
1:21 pm 13:21 Cloudy with Thunderstorms 74 23.3 72 22.2 94 94 SSW 13 20 30.00 1016 1 2 0.32 8.13
1:23 pm 13:23 Cloudy with Thunderstorms 74 23.3 72 22.2 94 94 SW 12 19 30.00 1016 2 3 0.32 8.13
1:31 pm 13:31 Cloudy with Thunderstorms 75 23.9 73 22.8 94 94 WSW 9 15 30.00 1016 10 16 0.32 8.13
1:48 pm 13:48 Mostly Cloudy 75 24 73 23 94 94 W 3 6 30.00 1016 10 16 0.00 0.00
1:53 pm 13:53 Partly Cloudy 77 25 74 23.3 90 90 WNW 3 6 29.97 1015 10 16 0.32 8.13
2:36 pm 14:36 Mostly Cloudy 77 25 73 23 89 89 SE 3 6 29.94 1014 10 16 0.00 0.00
2:43 pm 14:43 Partly Cloudy 77 25 75 23.9 94 94 SSE 5 7 29.94 1014 10 16 0.00 0.00
2:53 pm 14:53 Mostly Sunny 78 25.6 75 23.9 90 90 S 6 9 29.94 1014 10 16 0.00 0.00
3:53 pm 15:53 Sunny 85 29.4 76 24.4 75 75 S 9 15 29.90 1013 10 16 0.00 0.00
4:33 pm 16:33 Partly Cloudy with Nearby Thunderstorms 85 29.4 74 23.3 70 70 S 10 17 29.88 1012 10 16 0.00 0.00
4:48 pm 16:48 Partly Cloudy 84 29 75 24 74 74 S 9 15 29.88 1012 10 16 0.00 0.00
4:53 pm 16:53 Partly Cloudy with Nearby Thunderstorms 84 28.9 73 22.8 70 70 S 14 22 29.89 1012 10 16 0.00 0.00
5:39 pm 17:39 Mostly Cloudy with Light Rain 81 27.2 73 22.8 77 77 W 9 15 29.88 1012 10 16 0.00 0.03
5:53 pm 17:53 Cloudy with Nearby Thunderstorms 78 25.6 74 23.3 87 87 WNW 3 6 29.88 1012 5 8 0.01 0.25
6:11 pm 18:11 Cloudy with Thunderstorms 76 24.4 74 23.3 94 94 WNW 18 30 29.88 1012 2 3 0.03 0.76
6:21 pm 18:21 Cloudy with Strong Thunderstorms 74 23.3 73 22.8 97 97 WNW 15 24 29.94 1014 1 1 0.24 6.10
6:29 pm 18:29 Mostly Cloudy with Strong Thunderstorms 74 23.3 73 22.8 97 97 W 16 26 29.94 1014 1 1 0.33 8.38
6:34 pm 18:34 Mostly Cloudy with Strong Thunderstorms 73 23 72 22 94 94 SSW 18 30 29.94 1014 1 1 0.00 0.00
6:41 pm 18:41 Cloudy with Thunderstorms 73 22.8 71 21.7 94 94 WSW 16 26 29.94 1014 1 2 0.46 11.68
6:50 pm 18:50 Cloudy with Strong Thunderstorms 73 23 72 22 94 94 WSW 12 19 29.94 1014 1 1 0.00 0.00
6:53 pm 18:53 Cloudy with Strong Thunderstorms 73 22.8 71 21.7 94 94 SW 10 17 29.93 1014 1 1 0.59 14.99
6:57 pm 18:57 Cloudy with Thunderstorms 73 22.8 72 22.2 96 96 WSW 6 9 29.94 1014 1 2 0.00 0.03
7:06 pm 19:06 Cloudy with Nearby Thunderstorms 73 23 72 22 94 94 SW 3 6 29.94 1014 8 13 0.00 0.00
7:53 pm 19:53 Cloudy with Nearby Thunderstorms 73 22.8 73 22.8 100 100 SSE 5 7 29.94 1014 10 16 0.01 0.25
8:08 pm 20:08 Cloudy 73 23 73 23 100 100 S 3 6 29.97 1015 10 16 0.00 0.00
8:32 pm 20:32 Cloudy with Nearby Thunderstorms 73 23 73 23 100 100 SSW 6 9 29.97 1015 10 16 0.00 0.00
8:53 pm 20:53 Mostly Cloudy 74 23.3 73 22.8 97 97 SSW 7 11 29.96 1014 10 16 0.00 0.03
9:53 pm 21:53 Mostly Clear 73 22.8 72 22.2 96 96 SSW 5 7 29.94 1014 10 16 0.02 0.51
10:53 pm 22:53 Clear 72 22.2 72 22.2 100 100 Calm 29.96 1014 10 16 0.00 0.00
11:53 pm 23:53 Partly Cloudy 72 22.2 72 22.2 100 100 S 3 6 29.96 1015 10 16 0.00 0.00

Powered by AerisWeather